| time (UTC) | temp C | wind direction | speed KPH | gust KPH | rain 1hr cm | rain 24hr cm | rain mn cm | humidity % | barometer mb |
| 20260507233022 | 13 | 233 | 9.7 | 17.7 | 0.00 | 0.08 | 0.03 | 51 | 1012.9 |
| 20260507231555 | 13 | 280 | 4.8 | 14.5 | 0.00 | 0.08 | 0.03 | 51 | 1012.7 |
| 20260507230029 | 12 | 267 | 8.0 | 20.9 | 0.00 | 0.08 | 0.03 | 51 | 1012.6 |
| 20260507224555 | 13 | 281 | 6.4 | 16.1 | 0.00 | 0.08 | 0.03 | 53 | 1012.6 |
| 20260507223028 | 13 | 256 | 4.8 | 22.5 | 0.00 | 0.08 | 0.03 | 50 | 1012.7 |
| 20260507221503 | 13 | 269 | 8.0 | 19.3 | 0.00 | 0.08 | 0.03 | 53 | 1012.5 |
| 20260507220036 | 13 | 233 | 9.7 | 24.1 | 0.00 | 0.08 | 0.03 | 50 | 1012.3 |
| 20260507214519 | 14 | 296 | 9.7 | 19.3 | 0.00 | 0.08 | 0.03 | 50 | 1012.0 |
| 20260507213059 | 13 | 281 | 3.2 | 22.5 | 0.00 | 0.08 | 0.03 | 53 | 1012.0 |
| 20260507211549 | 15 | 180 | 9.7 | 16.1 | 0.00 | 0.08 | 0.03 | 51 | 1012.0 |
| 20260507210015 | 13 | 201 | 4.8 | 27.4 | 0.00 | 0.08 | 0.03 | 56 | 1011.9 |
| 20260507204553 | 13 | 279 | 8.0 | 16.1 | 0.00 | 0.08 | 0.03 | 54 | 1011.8 |
| 20260507203027 | 13 | 310 | 6.4 | 20.9 | 0.00 | 0.08 | 0.03 | 57 | 1012.0 |
| 20260507201524 | 14 | 288 | 8.0 | 20.9 | 0.00 | 0.08 | 0.03 | 56 | 1012.1 |
| 20260507200046 | 13 | 220 | 6.4 | 19.3 | 0.00 | 0.08 | 0.03 | 53 | 1012.3 |
| 20260507194527 | 13 | 251 | 12.9 | 20.9 | 0.00 | 0.08 | 0.03 | 55 | 1012.5 |
| 20260507193054 | 13 | 244 | 4.8 | 14.5 | 0.00 | 0.08 | 0.03 | 55 | 1012.6 |
| 20260507191537 | 14 | 232 | 8.0 | 24.1 | 0.00 | 0.08 | 0.03 | 56 | 1012.7 |
| 20260507190015 | 14 | 240 | 8.0 | 20.9 | 0.00 | 0.08 | 0.03 | 59 | 1012.6 |
| 20260507184546 | 14 | 203 | 12.9 | 17.7 | 0.00 | 0.08 | 0.03 | 55 | 1012.7 |
| 20260507183021 | 13 | 256 | 12.9 | 19.3 | 0.00 | 0.08 | 0.03 | 54 | 1012.7 |
| 20260507181559 | 14 | 234 | 4.8 | 19.3 | 0.00 | 0.08 | 0.03 | 59 | 1012.8 |
| 20260507180046 | 13 | 9 | 12.9 | 24.1 | 0.00 | 0.10 | 0.03 | 53 | 1012.9 |
| 20260507174523 | 13 | 195 | 12.9 | 17.7 | 0.00 | 0.10 | 0.03 | 59 | 1013.0 |
| 20260507173055 | 13 | 274 | 9.7 | 19.3 | 0.00 | 0.10 | 0.03 | 55 | 1013.2 |
| 20260507171520 | 13 | 279 | 16.1 | 27.4 | 0.00 | 0.10 | 0.03 | 60 | 1013.5 |
| 20260507170051 | 13 | 284 | 4.8 | 20.9 | 0.00 | 0.13 | 0.03 | 59 | 1013.7 |
| 20260507164526 | 13 | 263 | 8.0 | 12.9 | 0.00 | 0.13 | 0.03 | 61 | 1013.7 |
| 20260507163058 | 13 | 203 | 6.4 | 17.7 | 0.00 | 0.13 | 0.03 | 61 | 1014.0 |
| 20260507161550 | 13 | 275 | 3.2 | 12.9 | 0.00 | 0.13 | 0.03 | 59 | 1014.1 |
| 20260507160017 | 12 | 197 | 8.0 | 17.7 | 0.00 | 0.20 | 0.03 | 65 | 1014.2 |
| 20260507154556 | 12 | 213 | 8.0 | 22.5 | 0.00 | 0.20 | 0.03 | 61 | 1014.2 |
| 20260507153028 | 12 | 217 | 8.0 | 17.7 | 0.00 | 0.20 | 0.03 | 62 | 1014.2 |
| 20260507151516 | 12 | 258 | 4.8 | 12.9 | 0.00 | 0.20 | 0.03 | 60 | 1014.3 |
| 20260507150048 | 12 | 194 | 4.8 | 14.5 | 0.00 | 0.20 | 0.03 | 67 | 1014.5 |
| 20260507144530 | 12 | 244 | 1.6 | 9.7 | 0.00 | 0.20 | 0.03 | 67 | 1014.7 |
| 20260507143108 | 11 | 308 | 6.4 | 12.9 | 0.00 | 0.20 | 0.03 | 59 | 1014.8 |
| 20260507143002 | 11 | 292 | 6.4 | 12.9 | 0.00 | 0.20 | 0.03 | 59 | 1014.8 |
| 20260507141542 | 11 | 254 | 6.4 | 12.9 | 0.00 | 0.20 | 0.03 | 69 | 1015.1 |
| 20260507140016 | 11 | 199 | 6.4 | 16.1 | 0.00 | 0.20 | 0.03 | 70 | 1015.4 |
| 20260507134550 | 11 | 153 | 3.2 | 11.3 | 0.00 | 0.20 | 0.03 | 69 | 1015.5 |
| 20260507133022 | 11 | 193 | 0.0 | 8.0 | 0.00 | 0.20 | 0.03 | 69 | 1015.7 |
| 20260507131556 | 11 | 161 | 3.2 | 8.0 | 0.00 | 0.20 | 0.03 | 76 | 1015.6 |
| 20260507130033 | 10 | 150 | 4.8 | 8.0 | 0.00 | 0.36 | 0.03 | 75 | 1015.7 |
| 20260507124508 | 8 | 324 | 0.0 | 3.2 | 0.00 | 0.36 | 0.03 | 74 | 1015.8 |
| 20260507123044 | 8 | 324 | 0.0 | 3.2 | 0.00 | 0.36 | 0.03 | 77 | 1016.0 |
| 20260507121524 | 7 | 325 | 0.0 | 1.6 | 0.00 | 0.36 | 0.03 | 88 | 1015.8 |
| 20260507120050 | 7 | 325 | 0.0 | 1.6 | 0.00 | 0.48 | 0.03 | 96 | 1015.6 |
| 20260507114530 | 6 | 325 | 0.0 | 1.6 | 0.00 | 0.48 | 0.03 | 96 | 1015.5 |
| 20260507113058 | 6 | 325 | 0.0 | 1.6 | 0.00 | 0.48 | 0.03 | 97 | 1015.3 |
| 20260507111538 | 5 | 325 | 0.0 | 0.0 | 0.00 | 0.48 | 0.03 | 96 | 1015.2 |
| 20260507110018 | 6 | 325 | 0.0 | 1.6 | 0.00 | 0.81 | 0.03 | 97 | 1015.0 |
| 20260507104602 | 6 | 325 | 0.0 | 3.2 | 0.00 | 0.81 | 0.03 | 96 | 1014.8 |
| 20260507103029 | 6 | 325 | 0.0 | 0.0 | 0.00 | 0.81 | 0.03 | 97 | 1014.7 |
| 20260507101511 | 6 | 325 | 0.0 | 0.0 | 0.00 | 0.81 | 0.03 | 97 | 1014.6 |
| 20260507100057 | 6 | 325 | 0.0 | 3.2 | 0.00 | 1.19 | 0.03 | 97 | 1014.5 |
| 20260507094525 | 6 | 325 | 0.0 | 1.6 | 0.00 | 1.19 | 0.03 | 97 | 1014.5 |
| 20260507093052 | 7 | 325 | 1.6 | 3.2 | 0.00 | 1.19 | 0.03 | 97 | 1014.3 |
| 20260507091542 | 7 | 325 | 0.0 | 4.8 | 0.00 | 1.19 | 0.03 | 97 | 1014.3 |
| 20260507090007 | 7 | 325 | 1.6 | 4.8 | 0.00 | 1.30 | 0.03 | 97 | 1014.2 |
| 20260507084546 | 7 | 325 | 0.0 | 1.6 | 0.00 | 1.30 | 0.03 | 97 | 1014.3 |
| 20260507083020 | 7 | 325 | 0.0 | 0.0 | 0.00 | 1.30 | 0.03 | 97 | 1014.2 |
| 20260507081600 | 7 | 325 | 0.0 | 1.6 | 0.00 | 1.30 | 0.03 | 97 | 1014.2 |
| 20260507081509 | 7 | 325 | 0.0 | 1.6 | 0.00 | 1.30 | 0.03 | 97 | 1014.2 |
| 20260507080040 | 7 | 325 | 0.0 | 0.0 | 0.00 | 1.30 | 0.03 | 97 | 1014.2 |
| 20260507074518 | 7 | 325 | 0.0 | 1.6 | 0.00 | 1.30 | 0.03 | 97 | 1014.1 |
| 20260507073050 | 7 | 325 | 0.0 | 1.6 | 0.00 | 1.30 | 0.03 | 97 | 1014.2 |
| 20260507071529 | 7 | 325 | 0.0 | 1.6 | 0.00 | 1.30 | 0.03 | 97 | 1014.2 |
| 20260507070106 | 7 | 325 | 0.0 | 1.6 | 0.00 | 1.30 | 0.03 | 97 | 1014.0 |
| 20260507064548 | 7 | 325 | 1.6 | 4.8 | 0.03 | 1.30 | 0.03 | 97 | 1013.9 |
| 20260507063009 | 7 | 325 | 1.6 | 3.2 | 0.03 | 1.30 | 0.03 | 96 | 1014.0 |
| 20260507061554 | 7 | 325 | 3.2 | 6.4 | 0.03 | 1.30 | 0.03 | 97 | 1014.0 |
| 20260507060023 | 8 | 309 | 3.2 | 16.1 | 0.03 | 1.30 | 0.03 | 97 | 1014.0 |
| 20260507054612 | 8 | 72 | 1.6 | 4.8 | 0.00 | 1.27 | 0.00 | 98 | 1014.2 |
| 20260507053034 | 8 | 72 | 1.6 | 4.8 | 0.00 | 1.27 | 0.00 | 98 | 1014.3 |
| 20260507051518 | 8 | 67 | 1.6 | 4.8 | 0.00 | 1.27 | 0.00 | 98 | 1014.5 |
| 20260507050049 | 8 | 66 | 0.0 | 0.0 | 0.00 | 1.27 | 0.00 | 98 | 1014.4 |
| 20260507044525 | 8 | 66 | 0.0 | 0.0 | 0.00 | 1.27 | 0.00 | 97 | 1014.5 |
| 20260507043053 | 8 | 66 | 0.0 | 0.0 | 0.00 | 1.27 | 0.00 | 97 | 1014.3 |
| 20260507041535 | 8 | 66 | 0.0 | 1.6 | 0.00 | 1.27 | 0.00 | 97 | 1014.4 |
| 20260507040011 | 8 | 66 | 0.0 | 1.6 | 0.00 | 1.27 | 1.27 | 97 | 1014.1 |
| 20260507034548 | 8 | 66 | 0.0 | 0.0 | 0.00 | 1.27 | 1.27 | 97 | 1014.3 |
| 20260507033024 | 8 | 66 | 0.0 | 3.2 | 0.03 | 1.27 | 1.27 | 97 | 1014.1 |
| 20260507031601 | 8 | 66 | 1.6 | 4.8 | 0.03 | 1.27 | 1.27 | 97 | 1014.6 |
| 20260507030036 | 8 | 65 | 3.2 | 4.8 | 0.03 | 1.27 | 1.27 | 97 | 1014.5 |
| 20260507024518 | 8 | 65 | 0.0 | 3.2 | 0.03 | 1.27 | 1.27 | 97 | 1014.0 |
| 20260507023047 | 8 | 65 | 0.0 | 4.8 | 0.00 | 1.24 | 1.24 | 97 | 1013.9 |
| 20260507021537 | 8 | 41 | 0.0 | 3.2 | 0.00 | 1.24 | 1.24 | 97 | 1014.0 |
| 20260507020008 | 8 | 39 | 0.0 | 1.6 | 0.00 | 1.24 | 1.24 | 97 | 1013.8 |
| 20260507014606 | 8 | 39 | 0.0 | 1.6 | 0.00 | 1.24 | 1.24 | 97 | 1013.5 |
| 20260507013022 | 8 | 39 | 0.0 | 3.2 | 0.00 | 1.24 | 1.24 | 97 | 1013.4 |
| 20260507011602 | 8 | 39 | 0.0 | 1.6 | 0.00 | 1.24 | 1.24 | 96 | 1013.6 |
| 20260507011502 | 8 | 39 | 0.0 | 1.6 | 0.00 | 1.24 | 1.24 | 96 | 1013.5 |
| 20260507010041 | 8 | 39 | 0.0 | 8.0 | 0.03 | 1.24 | 1.24 | 96 | 1013.1 |
| 20260507004517 | 8 | 21 | 3.2 | 8.0 | 0.03 | 1.24 | 1.24 | 96 | 1013.1 |
| 20260507003041 | 9 | 313 | 1.6 | 8.0 | 0.03 | 1.24 | 1.24 | 96 | 1013.1 |
| 20260507001533 | 9 | 321 | 3.2 | 9.7 | 0.03 | 1.24 | 1.24 | 95 | 1012.9 |
| 20260507000111 | 10 | 266 | 1.6 | 4.8 | 0.00 | 1.22 | 1.22 | 96 | 1013.5 |
| 20260506234536 | 10 | 265 | 3.2 | 6.4 | 0.00 | 1.22 | 1.22 | 95 | 1013.2 |